Topeka, KS

12:32 PM CDT on October 18, 2017 (GMT -0500)
Billard Municipal

Weather History for KTOP - October, 2012

Change the Weather History Date:

Wednesday, October 17, 2012

  Actual Average Record
Temperature  
Mean Temperature 61 °F 56 °F  
Max Temperature 70 °F 68 °F 90 °F (1991)
Min Temperature 51 °F 44 °F 19 °F (1976)
Degree Days  
Heating Degree Days 4 9  
Month to date heating degree days 152 125  
Since 1 July heating degree days 205 192  
Cooling Degree Days 0 1  
Month to date cooling degree days 9 23  
Year to date cooling degree days 1943 1416  
Growing Degree Days 12 (Base 50)    
Moisture  
Dew Point 43 °F    
Average Humidity 55    
Maximum Humidity 84    
Minimum Humidity 25    
Precipitation  
Precipitation 0.01 in 0.10 in 1.37 in (2007)
Month to date precipitation 1.38 1.77  
Year to date precipitation 20.96 32.00  
Snow  
Snow 0.00 in 0.00 in 1.80 in (1898)
Month to date snowfall 0.0 0.1  
Year to date snowfall 3.0 11.4  
Since 1 July snowfall 0.0 0.1  
Snow Depth 0.00 in    
Sea Level Pressure  
Sea Level Pressure 29.54 in    
Wind  
Wind Speed 10 mph (West)    
Max Wind Speed 32 mph    
Max Gust Speed 38 mph    
Visibility 10 miles    
Events Rain    
T = Trace of Precipitation, MM = Missing Value Source: NWS Daily Summary

Daily Weather History Graph

Daily Weather History Graph

Search for Another Location

Airport or City:

Trip Planner

Search our weather history database for the weather conditions in past years. The results will help you decide how hot, cold, wet, or windy it might be!

Date:

Astronomy

Oct. 17, 2012 Rise Set
Actual Time 7:34 AM CDT 6:40 PM CDT
Civil Twilight 7:07 AM CDT 7:07 PM CDT
Nautical Twilight 6:36 AM CDT 7:38 PM CDT
Astronomical Twilight 6:05 AM CDT 8:09 PM CDT
Moon 10:08 AM CDT (10/17) 8:18 PM CDT (10/17)
Length of Visible Light 11h 59m
Length of Day
11h 05m
Waxing Crescent, 7% of the Moon is Illuminated
Oct 17
Waxing Crescent
Oct 21
First Quarter
Oct 29
Full
Nov 6
Last Quarter
Nov 13
New

Hourly Weather History & Observations

Time (CDT) Temp. Dew Point Humidity Pressure Visibility Wind Dir Wind Speed Gust Speed Precip Events Conditions
12:53 AM 68.0 °F 52.0 °F 56% 29.47 in 10.0 mi South 8.1 mph - N/A   Clear
1:53 AM 68.0 °F 53.1 °F 59% 29.45 in 10.0 mi SSW 8.1 mph - N/A   Clear
2:53 AM 66.0 °F 54.0 °F 65% 29.45 in 10.0 mi SSW 6.9 mph - N/A   Clear
3:53 AM 63.0 °F 53.1 °F 70% 29.42 in 10.0 mi SSE 5.8 mph - N/A   Clear
4:53 AM 63.0 °F 54.0 °F 72% 29.42 in 10.0 mi South 8.1 mph - N/A   Clear
5:53 AM 62.1 °F 54.0 °F 75% 29.41 in 10.0 mi Calm Calm - N/A   Clear
6:53 AM 61.0 °F 54.0 °F 78% 29.44 in 10.0 mi SW 3.5 mph - N/A   Partly Cloudy
7:53 AM 61.0 °F 55.0 °F 81% 29.46 in 10.0 mi SSW 4.6 mph - N/A   Clear
8:53 AM 62.1 °F 55.0 °F 78% 29.47 in 10.0 mi SW 4.6 mph - N/A   Clear
9:53 AM 62.1 °F 55.9 °F 80% 29.51 in 10.0 mi SW 4.6 mph - N/A   Mostly Cloudy
10:53 AM 62.1 °F 55.0 °F 78% 29.54 in 9.0 mi SW 5.8 mph - 0.00 in Rain Light Rain
11:53 AM 60.1 °F 51.1 °F 72% 29.54 in 10.0 mi NW 8.1 mph - 0.01 in Rain Light Rain
12:53 PM 61.0 °F 50.0 °F 67% 29.56 in 10.0 mi WNW 10.4 mph - 0.00 in   Mostly Cloudy
1:53 PM 66.9 °F 39.0 °F 36% 29.53 in 10.0 mi NW 18.4 mph 31.1 mph N/A   Clear
2:53 PM 70.0 °F 34.0 °F 27% 29.51 in 10.0 mi NW 21.9 mph 29.9 mph N/A   Clear
3:53 PM 66.0 °F 30.9 °F 27% 29.55 in 10.0 mi NW 25.3 mph 34.5 mph N/A   Scattered Clouds
4:53 PM 64.9 °F 34.0 °F 32% 29.58 in 10.0 mi NW 19.6 mph 33.4 mph N/A   Mostly Cloudy
5:53 PM 63.0 °F 32.0 °F 31% 29.62 in 10.0 mi WNW 16.1 mph 27.6 mph N/A   Mostly Cloudy
6:53 PM 61.0 °F 30.9 °F 32% 29.64 in 10.0 mi WNW 10.4 mph - N/A   Clear
7:53 PM 60.1 °F 25.0 °F 26% 29.66 in 10.0 mi WNW 10.4 mph - N/A   Clear
8:53 PM 55.0 °F 26.1 °F 33% 29.68 in 10.0 mi NNW 5.8 mph - N/A   Clear
9:53 PM 55.9 °F 27.0 °F 33% 29.69 in 10.0 mi WSW 6.9 mph - N/A   Clear
10:53 PM 54.0 °F 27.0 °F 35% 29.69 in 10.0 mi West 8.1 mph - N/A   Clear
11:53 PM 52.0 °F 27.0 °F 38% 29.69 in 10.0 mi West 6.9 mph - N/A   Clear